Location: Unspecified
(0.0000°N, 0.0000°E)
Time: 21:40:41
(UTC+00:00)

SR - Pass Details

Date: 16 June 2025
Orbit: 572 x 853 km, 66.7° (Epoch: 13 July)

Event Time Altitude Azimuth Distance (km) Brightness Sun altitude
Rises 02:49:32 0° 18° (NNE) 2,907 ? -42.9°
Enters shadow 02:51:24 - 31° (NNE) 2,384 ? -42.5°
Reaches altitude 10° 02:54:26 10° 65° (ENE) 1,933 - -41.8°
Maximum altitude 02:54:39 10° 68° (ENE) 1,928 - -41.8°
Drops below altitude 10° 02:54:52 10° 71° (ENE) 1,927 - -41.7°
Sets 02:59:36 0° 119° (ESE) 2,787 - -40.7°
